Time,TemperatureF,DewpointF,PressureIn,WindDirection,WindDirectionDegrees,WindSpeedMPH,WindSpeedGustMPH,Humidity,HourlyPrecipIn,Conditions,Clouds,dailyrainin,SoftwareType,DateUTC
2013-02-07 00:02:00,60.0,57.0,29.81,SW,221,2.0,6.0,90,0.00,,,0.02,,2013-02-07 06:02:00,
2013-02-07 00:11:00,60.0,57.0,29.81,SW,221,2.0,6.0,90,0.00,,,0.02,,2013-02-07 06:11:00,
2013-02-07 00:22:00,60.0,57.0,29.81,SSW,212,2.0,6.0,90,0.00,,,0.02,,2013-02-07 06:22:00,
2013-02-07 00:32:00,60.0,57.0,29.81,SSW,205,1.0,5.0,91,0.00,,,0.02,,2013-02-07 06:32:00,
2013-02-07 00:43:00,60.0,57.0,29.81,SSW,205,1.0,5.0,91,0.00,,,0.02,,2013-02-07 06:43:00,
2013-02-07 00:52:00,60.0,57.0,29.81,SW,217,3.0,8.0,91,0.00,,,0.02,,2013-02-07 06:52:00,
2013-02-07 01:01:00,60.0,57.0,29.81,SW,217,3.0,8.0,91,0.00,,,0.02,,2013-02-07 07:01:00,
2013-02-07 01:11:00,59.0,57.0,29.81,SW,231,2.0,8.0,92,0.00,,,0.02,,2013-02-07 07:11:00,
2013-02-07 01:22:00,59.0,57.0,29.81,SW,231,2.0,8.0,92,0.00,,,0.02,,2013-02-07 07:22:00,
2013-02-07 01:32:00,59.0,57.0,29.81,SSW,193,2.0,7.0,92,0.00,,,0.02,,2013-02-07 07:32:00,
2013-02-07 01:42:00,59.0,57.0,29.81,SSW,193,2.0,7.0,92,0.00,,,0.02,,2013-02-07 07:42:00,
2013-02-07 01:52:00,59.0,57.0,29.82,WSW,242,2.0,7.0,93,0.00,,,0.02,,2013-02-07 07:52:00,
2013-02-07 02:01:00,59.0,57.0,29.82,South,183,1.0,6.0,93,0.00,,,0.02,,2013-02-07 08:01:00,
2013-02-07 02:11:00,59.0,57.0,29.82,South,183,1.0,6.0,93,0.00,,,0.02,,2013-02-07 08:11:00,
2013-02-07 02:21:00,58.0,56.0,29.82,SW,235,1.0,6.0,93,0.00,,,0.02,,2013-02-07 08:21:00,
2013-02-07 02:32:00,58.0,56.0,29.82,South,190,1.0,8.0,92,0.00,,,0.02,,2013-02-07 08:32:00,
2013-02-07 02:42:00,58.0,56.0,29.82,South,190,1.0,8.0,92,0.00,,,0.02,,2013-02-07 08:42:00,
2013-02-07 02:52:00,58.0,56.0,29.81,SW,225,4.0,8.0,92,0.00,,,0.02,,2013-02-07 08:52:00,
2013-02-07 03:02:00,58.0,56.0,29.81,SSW,194,2.0,7.0,92,0.00,,,0.02,,2013-02-07 09:02:00,
2013-02-07 03:11:00,58.0,56.0,29.81,SSW,194,2.0,7.0,92,0.00,,,0.02,,2013-02-07 09:11:00,
2013-02-07 03:21:00,58.0,56.0,29.81,SSW,195,2.0,11.0,92,0.00,,,0.02,,2013-02-07 09:21:00,
2013-02-07 03:32:00,58.0,56.0,29.81,WSW,240,4.0,8.0,93,0.00,,,0.02,,2013-02-07 09:32:00,
2013-02-07 03:41:00,58.0,56.0,29.81,WSW,240,4.0,8.0,93,0.00,,,0.02,,2013-02-07 09:41:00,
2013-02-07 03:52:00,57.0,55.0,29.81,SW,232,3.0,8.0,94,0.00,,,0.02,,2013-02-07 09:52:00,
2013-02-07 04:01:00,57.0,55.0,29.80,SW,217,3.0,11.0,94,0.00,,,0.02,,2013-02-07 10:01:00,
2013-02-07 04:11:00,57.0,55.0,29.80,SW,217,3.0,11.0,94,0.00,,,0.02,,2013-02-07 10:11:00,
2013-02-07 04:22:00,57.0,56.0,29.81,WSW,256,1.0,6.0,95,0.00,,,0.02,,2013-02-07 10:22:00,
2013-02-07 04:32:00,57.0,56.0,29.81,SW,225,2.0,7.0,95,0.00,,,0.02,,2013-02-07 10:32:00,
2013-02-07 04:42:00,57.0,56.0,29.81,SW,225,2.0,7.0,95,0.00,,,0.02,,2013-02-07 10:42:00,
2013-02-07 04:51:00,57.0,56.0,29.80,SW,232,1.0,7.0,95,0.00,,,0.02,,2013-02-07 10:51:00,
2013-02-07 05:01:00,57.0,55.0,29.80,SW,224,2.0,6.0,94,0.00,,,0.02,,2013-02-07 11:01:00,
2013-02-07 05:11:00,57.0,55.0,29.80,SW,224,2.0,6.0,94,0.00,,,0.02,,2013-02-07 11:11:00,
2013-02-07 05:22:00,57.0,55.0,29.80,WSW,240,3.0,8.0,94,0.00,,,0.02,,2013-02-07 11:22:00,
2013-02-07 05:32:00,57.0,55.0,29.81,SW,232,3.0,6.0,94,0.00,,,0.02,,2013-02-07 11:32:00,
2013-02-07 05:44:00,57.0,55.0,29.81,SW,232,3.0,6.0,94,0.00,,,0.02,,2013-02-07 11:44:00,
2013-02-07 05:52:00,57.0,55.0,29.81,WSW,255,0.0,4.0,94,0.00,,,0.02,,2013-02-07 11:52:00,
2013-02-07 06:02:00,57.0,56.0,29.82,WSW,249,0.0,3.0,95,0.00,,,0.02,,2013-02-07 12:02:00,
2013-02-07 06:11:00,57.0,56.0,29.82,WSW,249,0.0,3.0,95,0.00,,,0.02,,2013-02-07 12:11:00,
2013-02-07 06:22:00,57.0,56.0,29.82,WSW,255,0.0,2.0,95,0.00,,,0.02,,2013-02-07 12:22:00,
2013-02-07 06:32:00,57.0,56.0,29.82,SSW,212,1.0,3.0,95,0.00,,,0.00,,2013-02-07 12:32:00,
2013-02-07 06:42:00,57.0,56.0,29.82,SSW,212,1.0,3.0,95,0.00,,,0.00,,2013-02-07 12:42:00,
2013-02-07 06:52:00,57.0,56.0,29.82,SSW,203,0.0,4.0,95,0.00,,,0.00,,2013-02-07 12:52:00,
2013-02-07 07:02:00,57.0,56.0,29.82,WSW,246,0.0,3.0,96,0.00,,,0.00,,2013-02-07 13:02:00,
2013-02-07 07:12:00,57.0,56.0,29.82,WSW,246,0.0,3.0,96,0.00,,,0.00,,2013-02-07 13:12:00,
2013-02-07 07:22:00,57.0,56.0,29.83,SW,225,0.0,2.0,96,0.00,,,0.00,,2013-02-07 13:22:00,
2013-02-07 07:32:00,57.0,56.0,29.82,SSW,207,0.0,1.0,96,0.00,,,0.00,,2013-02-07 13:32:00,
2013-02-07 07:42:00,57.0,56.0,29.82,SSW,207,0.0,1.0,96,0.00,,,0.00,,2013-02-07 13:42:00,
2013-02-07 07:52:00,57.0,56.0,29.83,SW,222,0.0,0.0,96,0.00,,,0.00,,2013-02-07 13:52:00,
2013-02-07 08:01:00,57.0,56.0,29.83,SW,215,0.0,2.0,96,0.00,,,0.00,,2013-02-07 14:01:00,
2013-02-07 08:11:00,57.0,56.0,29.83,SW,215,0.0,2.0,96,0.00,,,0.00,,2013-02-07 14:11:00,
2013-02-07 08:21:00,57.0,56.0,29.85,West,271,0.0,2.0,96,0.00,,,0.00,,2013-02-07 14:21:00,
2013-02-07 08:32:00,58.0,57.0,29.85,WSW,242,0.0,1.0,96,0.00,,,0.00,,2013-02-07 14:32:00,
2013-02-07 08:42:00,58.0,57.0,29.85,WSW,242,0.0,1.0,96,0.00,,,0.00,,2013-02-07 14:42:00,
2013-02-07 08:52:00,58.0,57.0,29.86,WSW,242,0.0,1.0,96,0.00,,,0.00,,2013-02-07 14:52:00,
2013-02-07 09:02:00,58.0,57.0,29.87,South,176,0.0,0.0,96,0.00,,,0.00,,2013-02-07 15:02:00,
2013-02-07 09:11:00,58.0,57.0,29.87,South,176,0.0,0.0,96,0.00,,,0.00,,2013-02-07 15:11:00,
2013-02-07 09:22:00,59.0,58.0,29.87,SSE,166,0.0,0.0,96,0.00,,,0.00,,2013-02-07 15:22:00,
2013-02-07 09:32:00,59.0,58.0,29.88,WSW,248,0.0,3.0,97,0.00,,,0.00,,2013-02-07 15:32:00,
2013-02-07 09:42:00,59.0,58.0,29.88,WSW,248,0.0,3.0,97,0.00,,,0.00,,2013-02-07 15:42:00,
2013-02-07 09:52:00,60.0,59.0,29.88,SW,229,0.0,1.0,97,0.00,,,0.00,,2013-02-07 15:52:00,
2013-02-07 10:01:00,60.0,59.0,29.88,SSW,201,0.0,3.0,96,0.00,,,0.00,,2013-02-07 16:01:00,
2013-02-07 10:11:00,60.0,59.0,29.88,SSW,201,0.0,3.0,96,0.00,,,0.00,,2013-02-07 16:11:00,
2013-02-07 10:21:00,61.0,60.0,29.88,WSW,238,0.0,3.0,95,0.00,,,0.00,,2013-02-07 16:21:00,
2013-02-07 10:32:00,62.0,60.0,29.88,WSW,240,1.0,3.0,92,0.00,,,0.00,,2013-02-07 16:32:00,
2013-02-07 10:42:00,62.0,60.0,29.88,WSW,240,1.0,3.0,92,0.00,,,0.00,,2013-02-07 16:42:00,
2013-02-07 10:52:00,63.0,60.0,29.88,WSW,249,1.0,4.0,89,0.00,,,0.00,,2013-02-07 16:52:00,
2013-02-07 11:01:00,65.0,61.0,29.87,SE,143,0.0,4.0,86,0.00,,,0.00,,2013-02-07 17:01:00,
2013-02-07 11:11:00,65.0,61.0,29.87,SE,143,0.0,4.0,86,0.00,,,0.00,,2013-02-07 17:11:00,
2013-02-07 11:21:00,67.0,60.0,29.86,NNW,344,2.0,6.0,78,0.00,,,0.00,,2013-02-07 17:21:00,
2013-02-07 11:32:00,68.0,61.0,29.85,SSE,148,1.0,7.0,77,0.00,,,0.00,,2013-02-07 17:32:00,
2013-02-07 11:43:00,68.0,61.0,29.85,SSE,148,1.0,7.0,77,0.00,,,0.00,,2013-02-07 17:43:00,
2013-02-07 11:52:00,71.0,62.0,29.85,NNE,18,1.0,5.0,72,0.00,,,0.00,,2013-02-07 17:52:00,
2013-02-07 12:01:00,72.0,60.0,29.85,WNW,300,2.0,7.0,66,0.00,,,0.00,,2013-02-07 18:01:00,
2013-02-07 12:11:00,72.0,60.0,29.85,WNW,300,2.0,7.0,66,0.00,,,0.00,,2013-02-07 18:11:00,
2013-02-07 12:23:00,72.0,60.0,29.85,WNW,300,2.0,7.0,66,0.00,,,0.00,,2013-02-07 18:23:00,
2013-02-07 12:32:00,75.0,62.0,29.83,SSE,150,1.0,8.0,63,0.00,,,0.00,,2013-02-07 18:32:00,
2013-02-07 12:42:00,75.0,62.0,29.83,SSE,150,1.0,8.0,63,0.00,,,0.00,,2013-02-07 18:42:00,
2013-02-07 12:52:00,76.0,62.0,29.83,North,357,1.0,6.0,61,0.00,,,0.00,,2013-02-07 18:52:00,
2013-02-07 13:01:00,77.0,61.0,29.82,ESE,103,0.0,5.0,57,0.00,,,0.00,,2013-02-07 19:01:00,
2013-02-07 13:11:00,77.0,61.0,29.82,ESE,103,0.0,5.0,57,0.00,,,0.00,,2013-02-07 19:11:00,
2013-02-07 13:22:00,77.0,60.0,29.81,SW,225,1.0,7.0,55,0.00,,,0.00,,2013-02-07 19:22:00,
2013-02-07 13:32:00,79.0,58.0,29.80,NNW,341,2.0,7.0,49,0.00,,,0.00,,2013-02-07 19:32:00,
2013-02-07 13:41:00,79.0,58.0,29.80,NNW,341,2.0,7.0,49,0.00,,,0.00,,2013-02-07 19:41:00,
2013-02-07 13:52:00,80.0,57.0,29.79,WSW,238,2.0,4.0,45,0.00,,,0.00,,2013-02-07 19:52:00,
2013-02-07 14:01:00,81.0,56.0,29.79,SE,127,1.0,6.0,42,0.00,,,0.00,,2013-02-07 20:01:00,
2013-02-07 14:11:00,81.0,56.0,29.79,SE,127,1.0,6.0,42,0.00,,,0.00,,2013-02-07 20:11:00,
2013-02-07 14:22:00,81.0,55.0,29.78,NW,319,2.0,6.0,41,0.00,,,0.00,,2013-02-07 20:22:00,
2013-02-07 14:31:00,81.0,55.0,29.78,NW,319,2.0,6.0,41,0.00,,,0.00,,2013-02-07 20:31:00,
2013-02-07 14:42:00,81.0,55.0,29.78,NW,319,2.0,6.0,41,0.00,,,0.00,,2013-02-07 20:42:00,
2013-02-07 14:52:00,81.0,55.0,29.78,NW,319,2.0,6.0,41,0.00,,,0.00,,2013-02-07 20:52:00,
2013-02-07 15:02:00,81.0,56.0,29.77,ESE,111,0.0,5.0,42,0.00,,,0.00,,2013-02-07 21:02:00,
2013-02-07 15:11:00,81.0,56.0,29.77,ESE,111,0.0,5.0,42,0.00,,,0.00,,2013-02-07 21:11:00,
2013-02-07 15:21:00,83.0,55.0,29.76,ESE,103,0.0,3.0,38,0.00,,,0.00,,2013-02-07 21:21:00,
2013-02-07 15:32:00,83.0,55.0,29.76,SE,142,0.0,7.0,38,0.00,,,0.00,,2013-02-07 21:32:00,
2013-02-07 15:42:00,83.0,55.0,29.76,SE,142,0.0,7.0,38,0.00,,,0.00,,2013-02-07 21:42:00,
2013-02-07 15:51:00,83.0,55.0,29.76,ESE,106,1.0,4.0,39,0.00,,,0.00,,2013-02-07 21:51:00,
2013-02-07 16:02:00,81.0,54.0,29.75,East,84,0.0,5.0,39,0.00,,,0.00,,2013-02-07 22:02:00,
2013-02-07 16:11:00,81.0,54.0,29.75,East,84,0.0,5.0,39,0.00,,,0.00,,2013-02-07 22:11:00,
2013-02-07 16:21:00,79.0,47.0,29.75,SE,125,1.0,2.0,33,0.00,,,0.00,,2013-02-07 22:21:00,
2013-02-07 16:32:00,81.0,48.0,29.76,ESE,105,1.0,5.0,32,0.00,,,0.00,,2013-02-07 22:32:00,
2013-02-07 16:42:00,81.0,48.0,29.76,ESE,105,1.0,5.0,32,0.00,,,0.00,,2013-02-07 22:42:00,
2013-02-07 16:51:00,80.0,49.0,29.76,NE,56,1.0,9.0,34,0.00,,,0.00,,2013-02-07 22:51:00,
2013-02-07 17:01:00,80.0,49.0,29.76,NE,56,1.0,9.0,34,0.00,,,0.00,,2013-02-07 23:01:00,
2013-02-07 17:11:00,80.0,49.0,29.76,NE,56,1.0,9.0,34,0.00,,,0.00,,2013-02-07 23:11:00,
2013-02-07 17:21:00,78.0,47.0,29.76,WNW,302,1.0,3.0,33,0.00,,,0.00,,2013-02-07 23:21:00,
2013-02-07 17:32:00,78.0,45.0,29.77,NNW,328,2.0,8.0,31,0.00,,,0.00,,2013-02-07 23:32:00,
2013-02-07 17:42:00,78.0,45.0,29.77,NNW,328,2.0,8.0,31,0.00,,,0.00,,2013-02-07 23:42:00,
2013-02-07 17:52:00,76.0,44.0,29.78,NNE,30,3.0,8.0,32,0.00,,,0.00,,2013-02-07 23:52:00,
2013-02-07 18:01:00,76.0,45.0,29.78,NE,40,1.0,6.0,33,0.00,,,0.00,,2013-02-08 00:01:00,
2013-02-07 18:11:00,76.0,45.0,29.78,NE,40,1.0,6.0,33,0.00,,,0.00,,2013-02-08 00:11:00,
2013-02-07 18:21:00,75.0,45.0,29.79,NNW,328,1.0,5.0,35,0.00,,,0.00,,2013-02-08 00:21:00,
2013-02-07 18:32:00,74.0,41.0,29.80,East,91,1.0,7.0,31,0.00,,,0.00,,2013-02-08 00:32:00,
2013-02-07 18:42:00,74.0,41.0,29.80,East,91,1.0,7.0,31,0.00,,,0.00,,2013-02-08 00:42:00,
2013-02-07 18:52:00,72.0,40.0,29.81,NNW,327,0.0,6.0,31,0.00,,,0.00,,2013-02-08 00:52:00,
2013-02-07 19:01:00,71.0,39.0,29.82,WNW,291,1.0,9.0,31,0.00,,,0.00,,2013-02-08 01:01:00,
2013-02-07 19:11:00,71.0,39.0,29.82,WNW,291,1.0,9.0,31,0.00,,,0.00,,2013-02-08 01:11:00,
2013-02-07 19:21:00,70.0,38.0,29.83,NE,44,1.0,4.0,31,0.00,,,0.00,,2013-02-08 01:21:00,
2013-02-07 19:31:00,70.0,38.0,29.83,NE,44,1.0,4.0,31,0.00,,,0.00,,2013-02-08 01:31:00,
2013-02-07 19:41:00,70.0,38.0,29.83,NE,44,1.0,4.0,31,0.00,,,0.00,,2013-02-08 01:41:00,
2013-02-07 19:51:00,67.0,38.0,29.85,WNW,291,1.0,3.0,34,0.00,,,0.00,,2013-02-08 01:51:00,
2013-02-07 20:01:00,66.0,38.0,29.86,NNW,327,0.0,2.0,36,0.00,,,0.00,,2013-02-08 02:01:00,
2013-02-07 20:11:00,66.0,38.0,29.86,NNW,327,0.0,2.0,36,0.00,,,0.00,,2013-02-08 02:11:00,
2013-02-07 20:21:00,66.0,38.0,29.87,North,352,0.0,3.0,36,0.00,,,0.00,,2013-02-08 02:21:00,
2013-02-07 20:32:00,65.0,39.0,29.88,NNE,30,2.0,5.0,38,0.00,,,0.00,,2013-02-08 02:32:00,
2013-02-07 20:42:00,65.0,39.0,29.88,NNE,30,2.0,5.0,38,0.00,,,0.00,,2013-02-08 02:42:00,
2013-02-07 20:52:00,65.0,39.0,29.89,North,352,2.0,6.0,39,0.00,,,0.00,,2013-02-08 02:52:00,
2013-02-07 21:01:00,65.0,41.0,29.90,East,80,2.0,8.0,41,0.00,,,0.00,,2013-02-08 03:01:00,
2013-02-07 21:12:00,65.0,41.0,29.90,East,80,2.0,8.0,41,0.00,,,0.00,,2013-02-08 03:12:00,
2013-02-07 21:22:00,64.0,41.0,29.91,NE,41,2.0,8.0,43,0.00,,,0.00,,2013-02-08 03:22:00,
2013-02-07 21:32:00,63.0,41.0,29.92,NE,36,1.0,7.0,45,0.00,,,0.00,,2013-02-08 03:32:00,
2013-02-07 21:41:00,63.0,41.0,29.92,NE,36,1.0,7.0,45,0.00,,,0.00,,2013-02-08 03:41:00,
2013-02-07 21:51:00,63.0,43.0,29.93,ENE,65,3.0,12.0,48,0.00,,,0.00,,2013-02-08 03:51:00,
2013-02-07 22:01:00,63.0,45.0,29.93,ENE,70,4.0,11.0,51,0.00,,,0.00,,2013-02-08 04:01:00,
2013-02-07 22:11:00,63.0,45.0,29.93,ENE,70,4.0,11.0,51,0.00,,,0.00,,2013-02-08 04:11:00,
2013-02-07 22:21:00,62.0,45.0,29.95,East,84,4.0,11.0,54,0.00,,,0.00,,2013-02-08 04:21:00,
2013-02-07 22:32:00,61.0,46.0,29.96,ENE,74,4.0,9.0,58,0.00,,,0.00,,2013-02-08 04:32:00,
2013-02-07 22:41:00,61.0,46.0,29.96,ENE,74,4.0,9.0,58,0.00,,,0.00,,2013-02-08 04:41:00,
2013-02-07 22:51:00,60.0,47.0,29.96,NE,37,3.0,8.0,61,0.00,,,0.00,,2013-02-08 04:51:00,
2013-02-07 23:02:00,59.0,46.0,29.97,NE,41,2.0,8.0,63,0.00,,,0.00,,2013-02-08 05:02:00,
2013-02-07 23:11:00,59.0,46.0,29.97,NE,41,2.0,8.0,63,0.00,,,0.00,,2013-02-08 05:11:00,
2013-02-07 23:22:00,59.0,47.0,29.98,East,98,3.0,11.0,65,0.00,,,0.00,,2013-02-08 05:22:00,
2013-02-07 23:32:00,59.0,47.0,29.98,East,98,3.0,11.0,65,0.00,,,0.00,,2013-02-08 05:32:00,
2013-02-07 23:42:00,59.0,47.0,29.98,East,98,3.0,11.0,65,0.00,,,0.00,,2013-02-08 05:42:00,
2013-02-07 23:52:00,58.0,47.0,29.98,NE,44,2.0,9.0,68,0.00,,,0.00,,2013-02-08 05:52:00,